Zurück zum Katalog

STARLINK-32044

AktivKommunikationVLEO
NORAD 60092·PAYLOAD·🇺🇸 United States

Gestartet Jun 23, 2024 von Cape Canaveral Space Force Station

Loading…

Nächste Überflüge (nächste 24 Stunden)

TLE

AktuellSource: CelesTrak SupGP

Epoche: Sep 15, 2026, 02:32 UTC

1 60092C 24117B   26258.10604167 -.00054713  00000+0 -16155-2 0  2589
2 60092  53.1562 234.6651 0000765 104.3430 275.8898 15.34438669    18

Verfolge STARLINK-32044 in Echtzeit mit AllMySat

Download on the App Store